STARLINK-5487 (55652 NORAD) Tracking and Keplerian Element Data

This shows tracking and keplerian element data for the satellite.

Feedback or suggestion? Click here.




ElementValue
Catalog55652
NameSTARLINK-5487
Epoch Orbit130
Epoch Day62.91667824
Epoch Year2023
RAAN110.1955
Inclination70.0001
Eccentricity0.0003483
Argument of Perigee269.676
Mean Anonmoly329.7694
Mean Motion15.75035021
Decay Rate-0.00972908
L11 55652U 23021AA 23062.91667824 -.00972908 00000+0 -72976-2 0 9996
L22 55652 70.0001 110.1955 0003483 269.6760 329.7694 15.75035021 1302



Live tracking and technical data element details for STARLINK-5487 (NORAD 55652). STARLINK-5487 can be tracked NOW for your location showing map with azimuth and elevation plus other details from your city location.







IsCatalogInMostPopularTable: catalog: 55652, numindb: 1
Update: records affected: 1



GetName: 55652 STARLINK-5487

Hit Count: updated at: Wed, 22 Mar 2023 16:22:07 GMT